Weather Roundup
Issued by NWS

Home | Current Version | Previous Version | Text Only | Print | Product List | Glossary On
Versions: 1 2 3 4 5 6 7 8 9 10 11 12 13 14 15 16 17 18 19 20 21 22 23 24 25 26 27 28 29 30 31 32 33 34 35 36 37 38 39 40 41 42 43 44 45 46 47 48 49 50
000
NZUS93 KARX 291310
HRRWXR

CURRENT HOURLY OBSERVATIONS ACROSS
MUCH OF THE UPPER MISSISSIPPI VALLEY
NATIONAL WEATHER SERVICE LA CROSSE WI
800 AM CDT TUE JUL 29 2014


...SOUTHEAST MINNESOTA...


CITY           SKY/WX    TMP DP  RH WIND       PRES   REMARKS
ROCHESTER      SUNNY     61  56  83 NW6       30.15S
ROCHESTER/MAYO FAIR      61  54  76 NW5       30.14S
WINONA         SUNNY     61  55  82 NW6       30.12R
AUSTIN         SUNNY     59  55  88 NW7       30.14S
ALBERT LEA     SUNNY     59  55  88 CALM      30.16S
DODGE CENTER   SUNNY     63  57  82 NW7       30.15S
PRESTON        SUNNY     59  59  98 NW7       30.14S
OWATONNA       SUNNY     59  55  88 CALM      30.16R
FARIBAULT      SUNNY     64  55  72 CALM      30.15S
$$

...ELSEWHERE IN MINNESOTA...


CITY           SKY/WX    TMP DP  RH WIND       PRES   REMARKS
MINNEAPOLIS    MOSUNNY   65  56  72 NW6       30.14R
INTNL FALLS    PTSUNNY   60  57  89 W6        30.09S
DULUTH         MOSUNNY   62  54  74 NW8       30.08R
RED WING       SUNNY     61  59  94 CALM      30.12R
REDWOOD FALLS  SUNNY     59  54  83 NW6       30.19R
MANKATO        SUNNY     57  52  82 W7        30.17R
WORTHINGTON    SUNNY     57  54  88 NW6       30.22S
FAIRMONT       SUNNY     61  52  72 NW8       30.18S
$$

...SOUTHWEST WISCONSIN...


CITY           SKY/WX    TMP DP  RH WIND       PRES   REMARKS
LA CROSSE      SUNNY     62  57  83 CALM      30.10R
PRAIRIE DU CHI SUNNY     61  54  76 W3        30.11R
BOSCOBEL       SUNNY     60  56  86 CALM      30.10S
LONE ROCK      SUNNY     62  56  80 SW6       30.09R
PLATTEVILLE    SUNNY     58  56  91 W5        30.11S
FORT MC COY    SUNNY     59  55  89 CALM      30.10S
CAMP DOUGLAS   MOSUNNY   61  59  94 W7        30.08R
VIROQUA        FAIR      58  58  99 CALM      30.10S
WIS DELLS      SUNNY     60  52  75 W3        30.07S
$$

...ELSEWHERE IN WISCONSIN...


CITY           SKY/WX    TMP DP  RH WIND       PRES   REMARKS
MILWAUKEE      MOSUNNY   64  54  69 NW9       30.03S
MADISON        SUNNY     63  54  72 CALM      30.07R
GREEN BAY      PTSUNNY   62  56  80 N5        30.02S
EAU CLAIRE     SUNNY     60  57  89 MISG      30.10R
BLACK RVR FLS  FAIR      59  58  96 CALM      30.09R
MEDFORD        MOSUNNY   57  55  94 CALM      30.08S
WAUSAU         CLOUDY    58  54  86 NW6       30.05S
WIS RAPIDS     MOSUNNY   60  55  83 NW5       30.08R
MARSHFIELD     MOSUNNY   61  56  83 NW9       30.07R
RICE LAKE      NOT AVBL
$$

...NORTHEAST IOWA...


CITY           SKY/WX    TMP DP  RH WIND       PRES   REMARKS
WATERLOO       SUNNY     59  56  89 NW6       30.13S
DUBUQUE        SUNNY     61  56  83 CALM      30.12R
DECORAH        SUNNY     59  55  88 VRB3      30.12S
MASON CITY     SUNNY     59  56  89 NW7       30.18R
CHARLES CITY   SUNNY     59  57  94 NW5       30.15S
OELWEIN        SUNNY     57  55  94 NW7       30.14S
$$

...ELSEWHERE IN IOWA...


CITY           SKY/WX    TMP DP  RH WIND       PRES   REMARKS
DES MOINES     MOSUNNY   62  55  77 NW5       30.16R
IOWA CITY      SUNNY     63  57  81 NW6       30.14S
FORT DODGE     SUNNY     57  54  88 NW3       30.19R
MARSHALLTOWN   SUNNY     59  56  89 NW6       30.15R
CEDAR RAPIDS   SUNNY     59  56  89 W5        30.13R
$$

...NORTHERN ILLINOIS...


CITY           SKY/WX    TMP DP  RH WIND       PRES   REMARKS
CHICAGO-OHARE  MOSUNNY   65  52  62 W8        30.04S
DUPAGE         SUNNY     64  54  69 W6        30.06R
CHICAGO-MIDWAY MOSUNNY   65  56  72 W8        30.05S
MOLINE         SUNNY     62  57  83 W7        30.12R
ROCKFORD       PTSUNNY   61  54  77 CALM      30.10S
STERLING       SUNNY     59  54  82 NW3       30.11R
PEORIA         SUNNY     64  54  69 NW6       30.12R
$$

NOTE: "FAIR" INDICATES FEW OR NO CLOUDS BELOW 12,000 FEET WITH NO
SIGNIFICANT WEATHER AND/OR OBSTRUCTIONS TO VISIBILITY. WIND
SPEEDS ARE IN MILES-PER-HOUR.



USA.gov is the U.S. government's official web portal to all federal, state and local government web resources and services.